Regional Weather Roundup
Issued by NWS

Home | Current Version | Previous Version | Text Only | Print | Product List | Glossary On
Versions: 1 2 3 4 5 6 7 8 9 10 11 12 13 14 15 16 17 18 19 20 21 22 23 24 25 26 27 28
000
ASCA42 TJSJ 220610
RWRPR
PUERTO RICO/U.S. VIRGIN ISLANDS HOURLY WEATHER ROUNDUP
NATIONAL WEATHER SERVICE SAN JUAN PR
200 AM AST SUN JAN 22 2017

PRZ001>002-007>008-010-220700-
PUERTO RICO

CITY           SKY/WX    TMP DP  RH WIND       PRES   REMARKS
SAN JUAN LMM   PTCLDY    75  68  78 SW3       29.97F
CEIBA          CLEAR     66  66 100 NW3       29.99F
$$

VIZ001>002-220700-
U.S. VIRGIN ISLANDS

CITY           SKY/WX    TMP DP  RH WIND       PRES   REMARKS
CHARLOTTE AMA  CLOUDY    72  66  83 CALM      29.96F
CHRISTIANSTED  CLEAR     68  64  88 N3        29.97F
$$

HOURLY WEATHER ROUNDUP FOR THE NEWS MEDIA

CITY           SKY/WX    TMP DP  RH WIND       PRES   REMARKS
ORLANDO        MOCLDY    70  62  76 S10       29.80F
NEW YORK       FOG       44  44 100 S9        29.79S VSB 1/8
NEWARK         CLOUDY    44  44 100 W5        29.78S FOG
CHICAGO        FOG       42  42 100 NW6       29.59S VSB 1/2
HARTFORD       FOG       41  39  93 S3        29.76S VSB 1/4
BOSTON         CLOUDY    40  38  93 CALM      29.75S
DALLAS         MOCLDY    59  44  57 SW9       29.42F
PHILADELPHIA   CLOUDY    46  44  93 NE5       29.76F FOG
LOS ANGELES    MOCLDY    56  47  71 S3        30.10R
WASHINGTON DC  FOG       48  47  96 CALM      29.74F VSB 1/8



USA.gov is the U.S. government's official web portal to all federal, state and local government web resources and services.